This is the latest recevied weather packets stored in our database for station/object KG4LKY-5. If no packets are shown the sender has not sent any weather packets the latest 10 day(s).
| Time | Temp. | Humidity | Pressure | Rain* | Wind** | Luminosity | Snow |
|---|---|---|---|---|---|---|---|
| 1777404035 | 21.11° C | 79% | 1017.2 hPa | 19.05 mm | - | - | - |
| 1777403734 | 20.56° C | 80% | 1017.3 hPa | 19.05 mm | - | - | - |
| 1777403434 | 21.11° C | 79% | 1017.2 hPa | 19.05 mm | - | - | - |
| 1777403134 | 21.11° C | 79% | 1017.3 hPa | 19.05 mm | - | - | - |
| 1777402834 | 21.67° C | 76% | 1017.4 hPa | 19.05 mm | - | - | - |
| 1777401631 | 22.22° C | 75% | 1017.5 hPa | 19.05 mm | - | - | - |
| 1777400430 | 22.22° C | 77% | 1017.6 hPa | 19.05 mm | - | - | - |
| 1777400129 | 21.67° C | 73% | 1017.6 hPa | 19.05 mm | - | - | - |
| 1777399829 | 22.22° C | 72% | 1017.6 hPa | 19.05 mm | - | - | - |
| 1777399229 | 21.67° C | 76% | 1017.6 hPa | 19.05 mm | - | - | - |
| 1777398928 | 21.67° C | 78% | 1017.7 hPa | 19.05 mm | - | - | - |
| 1777398628 | 21.67° C | 76% | 1017.7 hPa | 19.05 mm | - | - | - |
| 1777398328 | 21.67° C | 78% | 1017.8 hPa | 19.05 mm | - | - | - |
| 1777398028 | 21.11° C | 76% | 1017.8 hPa | 19.05 mm | - | - | - |
| 1777397427 | 20.56° C | 83% | 1018 hPa | 19.05 mm | - | - | - |
| 1777397127 | 21.11° C | 83% | 1018 hPa | 19.05 mm | - | - | - |
| 1777396826 | 20° C | 86% | 1018 hPa | 19.05 mm | - | - | - |
| 1777396526 | 20.56° C | 86% | 1017.8 hPa | 19.05 mm | - | - | - |
| 1777396226 | 20° C | 88% | 1017.8 hPa | 19.05 mm | - | - | - |
| 1777395926 | 20.56° C | 89% | 1018 hPa | 19.05 mm | - | - | - |
| 1777395625 | 20° C | 88% | 1018 hPa | 19.05 mm | - | - | - |
| 1777395325 | 20° C | 89% | 1018 hPa | 19.05 mm | - | - | - |
| 1777395025 | 20° C | 87% | 1018 hPa | 19.05 mm | - | - | - |
| 1777394726 | 21.11° C | 88% | 1018.1 hPa | 19.05 mm | - | - | - |
| 1777394424 | 19.44° C | 87% | 1018.1 hPa | 19.05 mm | - | - | - |
* Rain since midnight (hover to see other rain measurements)
** Current wind speed in m/s (hover to see current wind gust speed)